[[{"header":{"parameterUnit":"m.s-1","parameterCategory":1,"la1":30.2991,"la2":30.254,"lo1":-89.0895,"lo2":-89.0444,"dx":0.0017,"dy":0.0017,"nx":28,"ny":28,"refTime":"2022-11-05T21:00:00:Z","depth":0,"parameterNumber":2,"parameterNumberName":"U-component_of_WINDS"},"data":[0,0,0,0,0,0,0,0,0,0,0,0,0,0,0,0,0,0,0,0,0,0,0,0,0,0,0,0,0,0,0,0,0,0,0,0,0,0,0,0,0,0,0,0,0,0,0,0,0,0,0,0,0,0,0,0,0,0,-2.8794,-2.8794,0,-2.8743,-2.8742,-2.8742,-2.8625,-2.8623,-2.862,-2.8618,-2.8567,-2.8568,-2.8569,0,0,0,0,0,0,0,0,0,0,0,0,0,-2.8796,-2.8797,-2.8794,-2.8794,-2.8793,-2.8743,-2.8742,-2.8742,-2.8625,-2.8623,-2.862,-2.8617,-2.8567,-2.8568,-2.8569,0,0,0,0,0,0,0,0,0,0,0,0,0,-2.8775,-2.8797,-2.8795,-2.8729,-2.8723,-2.8743,-2.8742,-2.8742,-2.8626,-2.8622,-2.8619,-2.8615,-2.8567,-2.8568,-2.8569,-2.865,0,0,-2.8573,-2.8574,0,0,0,0,0,0,0,0,-2.8777,-2.8775,-2.8739,-2.8734,-2.8726,-2.8687,-2.8724,-2.8711,-2.8627,-2.8663,-2.8618,-2.8614,-2.861,-2.8608,-2.8606,-2.8647,-2.8645,-2.8573,-2.8574,-2.8575,-2.8575,0,0,0,0,0,0,0,-2.8778,-2.8777,-2.8774,-2.8739,-2.8731,-2.8704,-2.8697,-2.8721,-2.8657,-2.8659,-2.8651,-2.8646,-2.8606,-2.8605,-2.8604,-2.8644,-2.8573,-2.8574,-2.8575,-2.8576,-2.8754,-2.8758,0,0,0,0,0,0,-2.8789,-2.8779,-2.8776,-2.8772,-2.8743,-2.8707,-2.8699,-2.8703,-2.8657,-2.8646,-2.8649,-2.8641,-2.8604,-2.8602,-2.8602,-2.8696,-2.8575,-2.8576,-2.8577,-2.8751,-2.8755,-2.876,0,0,0,0,0,0,-2.8789,-2.8789,-2.8778,-2.8773,-2.877,-2.871,-2.8716,-2.8704,-2.8703,-2.8649,-2.8637,-2.866,-2.8601,-2.86,-2.864,-2.8692,-2.8577,-2.8578,-2.8746,-2.8752,-2.8757,-2.8884,0,0,0,0,0,0,-2.879,-2.879,-2.8819,-2.8775,-2.877,-2.8816,-2.8719,-2.8706,-2.8705,-2.8694,-2.8656,-2.8646,-2.8598,-2.8638,-2.8641,-2.8692,-2.8579,-2.8741,-2.8749,-2.8756,-2.8875,-2.8893,-2.8909,0,0,0,0,0,-2.879,-2.8856,-2.8821,-2.8821,-2.8805,-2.8819,-2.8816,-2.8759,-2.871,-2.874,-2.8706,-2.8647,-2.8686,-2.8643,-2.8645,-2.8698,-2.8737,-2.8746,-2.8755,-2.8867,-2.8889,-2.8909,0,0,0,0,0,0,-2.8907,-2.8849,-2.8809,-2.8862,-2.8847,-2.8799,-2.8834,-2.8785,-2.8783,-2.8772,-2.8702,-2.8695,-2.8745,-2.8725,-2.8678,-2.8776,-2.8703,-2.8712,-2.8787,-2.8808,-2.8825,-2.8829,-2.858,0,0,0,0,0,-2.8939,-2.8954,-2.8903,-2.8955,-2.8949,-2.8894,-2.8897,-2.8855,-2.8836,-2.8829,-2.8797,-2.8782,-2.8791,-2.8798,-2.8803,-2.8871,-2.8863,-2.8909,-2.8926,-2.894,-2.895,-2.8989,-2.9009,-2.8789,-2.8789,-2.8788,0,0,-2.9005,-2.8975,-2.8989,-2.8978,-2.896,-2.898,-2.8888,-2.8911,-2.8926,-2.8832,-2.8869,-2.8846,-2.8824,-2.888,-2.8903,-2.8865,-2.9009,-2.8952,-2.8964,-2.8965,-2.9,-2.9021,-2.904,-2.8795,-2.8794,-2.8793,0,0,-2.9136,-2.9114,-2.9157,-2.9142,-2.9117,-2.9081,-2.9092,-2.9052,-2.9034,-2.9069,-2.9001,-2.9018,-2.9033,-2.9022,-2.9018,-2.915,-2.9098,-2.9154,-2.9244,-2.9283,-2.93,-2.9315,-2.9365,-2.9384,-2.9163,-2.9164,-2.9164,0,-2.9222,-2.9247,-2.9185,-2.9214,-2.9212,-2.913,-2.9174,-2.9163,-2.9142,-2.9144,-2.9101,-2.9123,-2.9102,-2.9155,-2.9188,-2.9187,-2.9199,-2.9158,-2.9303,-2.9317,-2.933,-2.9377,-2.9396,-2.9171,-2.917,-2.9169,-2.9168,0,-2.9355,-2.9374,-2.9411,-2.9394,-2.9397,-2.9433,-2.9379,-2.939,-2.9349,-2.9318,-2.9358,-2.933,-2.933,-2.934,-2.9299,-2.9389,-2.9367,-2.9315,-2.924,-2.936,-2.9403,-2.942,-2.9181,-2.9178,-2.9176,-2.9174,0,0,-2.9555,-2.9506,-2.9522,-2.9515,-2.9483,-2.9498,-2.9532,-2.9532,-2.9544,-2.9534,-2.9563,-2.958,-2.9533,-2.9529,-2.9487,-2.9521,-2.9632,-2.9465,-2.9463,-2.9499,-2.9733,-2.9774,-2.9796,-2.9597,-2.96,-2.9602,-2.9736,0,-2.968,-2.9735,-2.9683,-2.9749,-2.9768,-2.9692,-2.9723,-2.9709,-2.9681,-2.9695,-2.9664,-2.9679,-2.9614,-2.9612,-2.9642,-2.9612,-2.9678,-2.9601,-2.9625,-2.9627,-2.9635,-2.9818,-2.986,-2.9987,-2.9752,-2.9755,-2.9757,0,-2.9832,-2.983,-2.9899,-2.9868,-2.9873,-2.9902,-2.99,-2.9913,-2.9897,-2.9875,-2.9873,-2.9823,-2.9857,-2.9784,-2.9832,-2.9781,-2.9789,-2.9776,-2.9779,-2.978,-2.97,-2.9826,-3.0026,-3.0046,-2.9782,-2.978,-2.9779,0,-2.9976,-2.999,-3.0034,-3.003,-2.9993,-3.0016,-3.0002,-2.9981,-2.9987,-2.9986,-2.9989,-2.9992,-2.9995,-2.9999,-2.9953,-2.9903,-3.0008,-2.993,-2.9993,-2.9995,-3.0019,-3.0019,-3.0226,-3.0021,-3.0021,-3.0021,-3.002,0,-3.0121,-3.0167,-3.0098,-3.0125,-3.0176,-3.0116,-3.0168,-3.0146,-3.013,-3.0154,-3.0088,-3.0112,-3.0048,-3.0066,-3.003,-3.0077,-3.0078,-3.0063,-3.0054,-3.007,-3.0073,-3.0075,-3.0065,-3.0026,-3.0025,-3.0024,-3.0023,0,-3.0289,-3.0244,-3.0288,-3.0251,-3.0243,-3.0282,-3.0252,-3.0277,-3.0246,-3.0277,-3.0281,-3.0234,-3.0252,-3.0206,-3.0217,-3.0193,-3.0262,-3.0237,-3.0268,-3.0261,-3.0328,-3.0323,-3.0545,-3.0572,-3.0349,-3.0351,-3.0353,0,-3.0385,-3.0419,-3.0387,-3.0398,-3.0388,-3.0407,-3.0412,-3.0357,-3.0365,-3.0352,-3.038,-3.0393,-3.04,-3.0433,-3.0401,-3.041,-3.0386,-3.0463,-3.0387,-3.0404,-3.0391,-3.039,-3.0395,-3.0479,-3.0482,-3.0484,-3.0486,0,-3.0562,-3.054,-3.055,-3.0554,-3.0563,-3.0564,-3.0559,-3.0573,-3.0514,-3.0527,-3.0546,-3.0552,-3.0564,-3.0579,-3.0582,-3.0569,-3.052,-3.0511,-3.0526,-3.0544,-3.0562,-3.0556,-3.0313,-3.0506,-3.0504,-3.0502,-3.0501,-3.0501,-3.0699,-3.0727,-3.071,-3.0725,-3.0717,-3.0716,-3.0739,-3.0712,-3.0726,-3.0732,-3.0699,-3.0726,-3.0713,-3.0711,-3.0705,-3.0726,-3.0691,-3.0713,-3.0719,-3.0725,-3.0738,-3.0558,-3.0726,-3.0725,-3.0725,-3.0724,-3.0724,0,-3.0875,-3.0861,-3.0875,-3.0873,-3.0886,-3.0838,-3.0832,-3.0847,-3.0871,-3.0862,-3.0872,-3.0896,-3.0911,-3.0881,-3.0892,-3.0916,-3.0894,-3.0921,-3.0919,-3.0918,-3.0767,-3.0753,-3.0939,-3.0939,-3.0939,-3.0939,-3.0939,-3.0939,-3.0968,-3.1014,-3.0991,-3.1034,-3.1019,-3.1045,-3.1047,-3.1047,-3.104,-3.1069,-3.1082,-3.1063,-3.1047,-3.1057,-3.1071,-3.1062,-3.107,-3.1106,-3.109,-3.0949,-3.0928,-3.0908,-3.0895,-3.1108,-3.1108,-3.1239,-3.124,-3.1241]},{"header":{"parameterUnit":"m.s-1","parameterCategory":1,"la1":30.2991,"la2":30.254,"lo1":-89.0895,"lo2":-89.0444,"dx":0.0017,"dy":0.0017,"nx":28,"ny":28,"refTime":"2022-11-05T21:00:00:Z","depth":0,"parameterNumber":3,"parameterNumberName":"V-component_of_WINDS"},"data":[0,0,0,0,0,0,0,0,0,0,0,0,0,0,0,0,0,0,0,0,0,0,0,0,0,0,0,0,0,0,0,0,0,0,0,0,0,0,0,0,0,0,0,0,0,0,0,0,0,0,0,0,0,0,0,0,0,0,1.2714,1.2714,0,1.2714,1.2714,1.2714,1.2743,1.2744,1.2745,1.2745,1.2741,1.274,1.2739,0,0,0,0,0,0,0,0,0,0,0,0,0,1.2733,1.2733,1.2714,1.2714,1.2714,1.2714,1.2714,1.2714,1.2743,1.2744,1.2745,1.2746,1.2741,1.274,1.2739,0,0,0,0,0,0,0,0,0,0,0,0,0,1.2728,1.2732,1.2714,1.2728,1.2729,1.2714,1.2714,1.2714,1.2743,1.2744,1.2745,1.2746,1.2742,1.274,1.2739,1.2709,0,0,1.2735,1.2735,0,0,0,0,0,0,0,0,1.2728,1.2727,1.2726,1.2727,1.2729,1.273,1.272,1.2712,1.2743,1.2738,1.2746,1.2747,1.2736,1.2735,1.2733,1.2708,1.2708,1.2735,1.2734,1.2734,1.2734,0,0,0,0,0,0,0,1.2729,1.2727,1.2714,1.2726,1.2727,1.2733,1.2734,1.2718,1.273,1.2738,1.274,1.274,1.2737,1.2734,1.2733,1.2708,1.2735,1.2734,1.2733,1.2733,1.2659,1.2658,0,0,0,0,0,0,1.2728,1.2728,1.2714,1.2714,1.2732,1.2732,1.2733,1.2728,1.2731,1.2732,1.2739,1.2742,1.2736,1.2734,1.2733,1.2697,1.2734,1.2733,1.2732,1.266,1.2659,1.2658,0,0,0,0,0,0,1.2728,1.2726,1.2714,1.2721,1.272,1.2731,1.2725,1.2728,1.2725,1.2732,1.2733,1.2734,1.2736,1.2735,1.2715,1.2697,1.2732,1.2731,1.2662,1.266,1.2658,1.2625,0,0,0,0,0,0,1.2728,1.2726,1.2715,1.2721,1.272,1.2697,1.2724,1.2727,1.2723,1.2726,1.2727,1.2728,1.2737,1.2717,1.2714,1.2696,1.273,1.2663,1.2661,1.2659,1.2628,1.2622,1.2618,0,0,0,0,0,1.2729,1.2705,1.2715,1.2713,1.2707,1.2696,1.2695,1.2707,1.2722,1.271,1.2715,1.2728,1.27,1.2714,1.2711,1.2693,1.2664,1.2662,1.2659,1.263,1.2623,1.2618,0,0,0,0,0,0,1.2694,1.2705,1.2717,1.2694,1.2694,1.27,1.2686,1.2699,1.2694,1.2696,1.271,1.271,1.2688,1.2689,1.2704,1.2664,1.2685,1.2681,1.2664,1.2658,1.2653,1.2652,1.2729,0,0,0,0,0,1.2684,1.2676,1.2686,1.2664,1.2664,1.2675,1.2671,1.2681,1.268,1.268,1.2683,1.2681,1.2672,1.2665,1.2657,1.2629,1.2629,1.2615,1.261,1.2606,1.2602,1.2587,1.2581,1.2649,1.2649,1.2649,0,0,1.2662,1.2668,1.2661,1.2658,1.2659,1.2648,1.2675,1.2662,1.2655,1.2677,1.2659,1.2662,1.266,1.2637,1.2626,1.2636,1.2584,1.2603,1.2599,1.2597,1.2584,1.2577,1.2572,1.2647,1.2647,1.2647,0,0,1.2618,1.2621,1.2604,1.2606,1.2608,1.2616,1.2612,1.2618,1.2621,1.2603,1.262,1.2611,1.2595,1.2593,1.259,1.2548,1.2559,1.2545,1.2517,1.2503,1.2498,1.2493,1.2476,1.2471,1.2541,1.2541,1.2541,0,1.259,1.2576,1.2593,1.258,1.2578,1.2601,1.2583,1.2583,1.2582,1.2579,1.2592,1.2573,1.2574,1.255,1.254,1.2537,1.2532,1.2543,1.2497,1.2493,1.2489,1.2473,1.2467,1.2539,1.254,1.254,1.254,0,1.2541,1.2532,1.2518,1.2518,1.2515,1.2499,1.2513,1.2507,1.2518,1.2524,1.2506,1.2508,1.2501,1.2497,1.2506,1.2474,1.2481,1.2495,1.2516,1.248,1.2465,1.246,1.2537,1.2537,1.2538,1.2538,0,0,1.2471,1.2484,1.2478,1.2479,1.2485,1.2477,1.2463,1.2458,1.2452,1.2451,1.2439,1.2426,1.244,1.2437,1.2447,1.2434,1.2399,1.245,1.245,1.2439,1.2363,1.2351,1.2344,1.2409,1.2408,1.2407,1.2363,0,1.2427,1.2405,1.242,1.2394,1.2386,1.2409,1.2397,1.2398,1.2404,1.2397,1.2403,1.2394,1.2414,1.2412,1.2401,1.2406,1.2384,1.241,1.2395,1.2394,1.2393,1.2337,1.2323,1.2282,1.2358,1.2357,1.2356,0,1.2371,1.237,1.2344,1.2353,1.235,1.2338,1.2336,1.2329,1.2331,1.2337,1.2335,1.2348,1.2334,1.2357,1.2336,1.2354,1.2349,1.2351,1.235,1.2347,1.2371,1.233,1.2269,1.2262,1.2348,1.2348,1.2349,0,1.2321,1.2313,1.2297,1.2297,1.2307,1.2298,1.2302,1.2306,1.2302,1.23,1.2298,1.2293,1.229,1.2286,1.2297,1.2313,1.2275,1.2299,1.2278,1.2277,1.2266,1.2266,1.2201,1.2267,1.2267,1.2267,1.2267,0,1.2269,1.2251,1.2275,1.2264,1.2245,1.2264,1.2245,1.2251,1.2254,1.2244,1.2265,1.2255,1.2272,1.2264,1.2273,1.2254,1.2253,1.2256,1.2258,1.2253,1.2252,1.2248,1.225,1.2266,1.2266,1.2266,1.2267,0,1.2208,1.2223,1.2207,1.2219,1.2221,1.2207,1.2216,1.2207,1.2216,1.2203,1.2201,1.2215,1.2206,1.2219,1.2211,1.2217,1.2191,1.2199,1.2191,1.2192,1.217,1.2171,1.2097,1.2088,1.2162,1.2161,1.2161,0,1.2172,1.216,1.2171,1.2167,1.217,1.2163,1.2161,1.2179,1.2175,1.2178,1.2168,1.2162,1.2157,1.2143,1.2151,1.2145,1.2151,1.2126,1.215,1.2146,1.2149,1.2149,1.2147,1.212,1.2119,1.2118,1.2118,0,1.2107,1.2116,1.2112,1.2111,1.2108,1.2108,1.2109,1.2104,1.2124,1.2118,1.2111,1.2108,1.2102,1.2094,1.2092,1.2094,1.2108,1.2111,1.2105,1.2099,1.2094,1.2095,1.2175,1.2112,1.2112,1.2113,1.2113,1.2113,1.2056,1.2046,1.2053,1.2049,1.2052,1.2053,1.2045,1.2054,1.2049,1.2046,1.2058,1.2048,1.2052,1.2049,1.205,1.2042,1.2053,1.2045,1.2043,1.204,1.2036,1.2098,1.2042,1.2042,1.2042,1.2042,1.2042,0,1.199,1.1997,1.1993,1.1995,1.1991,1.2009,1.2011,1.2006,1.1998,1.2001,1.1998,1.1989,1.1983,1.1993,1.1988,1.1979,1.1986,1.1977,1.1977,1.1977,1.2027,1.2032,1.1972,1.1972,1.1972,1.1972,1.1972,1.1972,1.1955,1.194,1.195,1.1936,1.1942,1.1934,1.1934,1.1935,1.1938,1.1928,1.1924,1.1931,1.1937,1.1933,1.1928,1.1931,1.1927,1.1916,1.192,1.1966,1.1973,1.198,1.1984,1.1915,1.1915,1.187,1.187,1.187]}]]